Regional Weather Roundup
Issued by NWS Wilmington, NC

Home | Current Version | Previous Version | Text Only | Print | Product List | Glossary On
Versions: 1 2 3 4 5 6 7 8 9 10 11 12 13 14 15 16 17 18 19 20 21 22 23 24 25 26 27 28 29 30 31 32 33 34 35 36 37 38 39 40 41 42 43 44 45 46 47 48 49 50
000
ASUS42 KILM 271713
RWRILM
RWRILM
REGIONAL HOURLY WEATHER ROUNDUP
NATIONAL WEATHER SERVICE WILMINGTON NC
100 PM EDT MON MAR 27 2017

NOTE: "FAIR" INDICATES FEW OR NO CLOUDS BELOW 12,000 FEET WITH NO
SIGNIFICANT WEATHER AND/OR OBSTRUCTIONS TO VISIBILITY.

...............WFO WILMINGTON COUNTY WARNING AREA...............

......COASTAL NC AND SC COUNTIES......

CITY           SKY/WX    TMP DP  RH WIND       PRES   REMARKS
WILMINGTON     CLOUDY    75  54  47 S9        30.14F
N MYRTLE BEACH MOSUNNY   73  56  54 S10       30.14F
MYRTLE BEACH   NOT AVBL

......INLAND NC AND SC COUNTIES.......

CITY           SKY/WX    TMP DP  RH WIND       PRES   REMARKS
LUMBERTON      CLOUDY    74  58  57 SE5       30.11F
ELIZABETHTOWN  MOSUNNY   75  56  50 S5        30.13F
WHITEVILLE     PTSUNNY   77  55  46 SW6       30.12F
FLORENCE       PTSUNNY   78  59  51 W13       30.11F
DARLINGTON     PTSUNNY   74  60  61 SW12      30.11F
KINGSTREE      FAIR      79  55  44 S8        30.11F
HARTSVILLE     PTSUNNY   72  59  64 W6        30.11F
BENNETTSVILLE  PTSUNNY   72  64  78 W5        30.11F
CONWAY         FAIR      75  55  50 E3        30.13F
GEORGETOWN     PTSUNNY   75  55  50 CALM      30.14F
MARION         PTSUNNY   75  55  50 W9        30.13F

....................REST OF NORTH CAROLINA......................

.........EASTERN NC.........

CITY           SKY/WX    TMP DP  RH WIND       PRES   REMARKS
CAPE HATTERAS  MOSUNNY   74  55  51 SW9       30.15F
JACKSONVILLE   CLOUDY    75  55  49 SW7       30.14F
MOREHEAD CITY  SUNNY     75  56  51 SW10      30.15F
KENANSVILLE    CLOUDY    75  55  50 SW6       30.13F
NEW BERN       CLOUDY    75  52  44 SW8       30.15F
ELIZABETH CITY PTSUNNY   73  55  53 SW12      30.12F

.........CENTRAL NC.........

CITY           SKY/WX    TMP DP  RH WIND       PRES   REMARKS
RALEIGH DURHAM PTSUNNY   72  58  61 W9        30.10F
ROCKY MOUNT    PTSUNNY   72  58  61 SW10      30.12F
ROANOKE RAPIDS NOT AVBL
FAYETTEVILLE   MOSUNNY   76  58  53 SW9G18    30.11F
HOFFMAN        PTSUNNY   73  58  59 SW7       30.10F

.........WESTERN NC.........

CITY           SKY/WX    TMP DP  RH WIND       PRES   REMARKS
CHARLOTTE      MOSUNNY   71  58  63 S10       30.11F
GREENSBORO     PTSUNNY   68  60  75 S10       30.09F
HICKORY        NOT AVBL
BOONE          NOT AVBL
ASHEVILLE      NOT AVBL

.....................REST OF SOUTH CAROLINA.....................

.........EASTERN SC.........

CITY           SKY/WX    TMP DP  RH WIND       PRES   REMARKS
CHARLESTON     PTSUNNY   77  57  50 S8        30.13F
BEAUFORT MCAS  MOSUNNY   79  63  57 SE7       30.13F
HILTON HEAD    SUNNY     73  61  64 SE10      30.15F

.........CENTRAL SC.........

CITY           SKY/WX    TMP DP  RH WIND       PRES   REMARKS
COLUMBIA       PTSUNNY   78  60  53 SW7       30.09F
ORANGEBURG     PTSUNNY   77  60  55 SW13      30.11F
SUMTER SHAW    MOSUNNY   79  59  49 SW10      30.08F

.........WESTERN SC.........

CITY           SKY/WX    TMP DP  RH WIND       PRES   REMARKS
GREENVILLE     NOT AVBL
ROCK HILL      MOSUNNY   71  59  65 SW9       30.12F
ANDERSON       CLOUDY    73  60  63 SW10      30.10F
CLEMSON        NOT AVBL
GREENWOOD      PTSUNNY   75  58  55 SW8       30.11F


...................COASTAL AND OFFSHORE REPORTS..................

................LOCAL PIERS AND NC RESERVE................


STATION/POSITION TIME  SKY/WX   TEMP    WIND        PRES    VSBY
                                AIR SEA DIR/SP/G
                 (UTC)          (F)     (DEG/KT/KT) (MB)    (MI)
JOHNY MRCER PIER 1630            66 58  150/  8/  9 1020.1F
NC RESRV MASNBRO 1545            74     160/  2     1021.0
OCEAN CREST PIER NOT AVBL
SPRINGMAID  PIER 1630                               1020.4F


................COASTAL AND OFFSHORE BUOYS................


STATION/POSITION TIME  SKY/WX   TEMP    WIND        PRES    VSBY
                                AIR SEA DIR/SP/G
                 (UTC)          (F)     (DEG/KT/KT) (MB)    (MI)
DIMNDSHOAL 41025 1550            71 76  180/  4/  6 1021.7
WVE H/P(F/S)=  3/ 9 SWL H/P/D(F/S/D)=  3/130/ 9

CAPE LOOKOUT     1600            72     300/  4/  6 1021.4F
ONSLOW BAY 41036 NOT AVBL
ONSLOW BAY 41064 NOT AVBL
ONSLOW BAY 41159 1643               67                N/A
WVE H/P(F/S)=  4/10 SWL H/P/D(F/S/D)=  2/140/11

MASNBO INL 41110 1659               63                N/A
WVE H/P(F/S)=  3/10 SWL H/P/D(F/S/D)=  2/150/11

WILM HARBR 41108 1647               62                N/A
WVE H/P(F/S)=  3/ 9 SWL H/P/D(F/S/D)=  2/160/11

27SE WRITB 41037 1608            66 64  320/  2/  6 1021.9R
FRYING PAN 41013 1640            72 76  190/  6/  8 1021.3F
SUNST NRSH 41024 NOT AVBL
CAPRS NRSH 41029 1608            66     190/  4/  6 1021.4F
EDISTO     41004 1550            70 73  300/  6/  8 1021.3
WVE H/P(F/S)=  4/10 SWL H/P/D(F/S/D)=  3/130/10



..........OFFSHORE BUOYS BEYOND 100 NM OFFSHORE...........
.....IN A TRIANGLE---HAT TO BERMUDA TO BAHAMAS TO HAT.....


STATION/POSITION TIME  SKY/WX   TEMP    WIND        PRES    VSBY
                                AIR SEA DIR/SP/G
                 (UTC)          (F)     (DEG/KT/KT) (MB)    (MI)
150E HAT   41001 NOT AVBL
W BERMUDA  41048 1550            67 68   70/ 12/ 14 1021.4
WVE H/P(F/S)=  6/ 9 SWL H/P/D(F/S/D)=  5/130/ 9

ATLANTIC S 41049 1550            67 72   80/ 21/ 25 1016.6
WVE H/P(F/S)= 10/ 8 SWL H/P/D(F/S/D)=  2/110/16

E BAHAMAS  41046 NOT AVBL
NE BAHAMAS 41047 1640            70 72   40/ 19/ 25 1015.5F
120E CANVRL41010 NOT AVBL

END



USA.gov is the U.S. government's official web portal to all federal, state and local government web resources and services.